Regional Weather Roundup
Issued by NWS

Home | Current Version | Previous Version | Graphics & Text | Print | Product List | Glossary On
Versions: 1 2 3 4 5 6 7 8 9 10 11 12 13 14 15 16 17 18 19 20 21 22 23 24 25 26 27 28 29 30 31 32 33 34 35 36 37 38 39 40 41 42 43 44 45 46 47 48 49 50
000
ASUS43 KLOT 220703
RWRIL

ILLINOIS REGIONAL WEATHER ROUNDUP
NATIONAL WEATHER SERVICE CHICAGO/ROMEOVILLE IL
100 AM CST THU FEB 22 2018

NOTE: "FAIR" INDICATES FEW OR NO CLOUDS BELOW 12,000 FEET WITH NO
SIGNIFICANT WEATHER AND/OR OBSTRUCTIONS TO VISIBILITY.

* THESE STATIONS ARE NOT UNDER NWS QUALITY CONTROL. THEY ALSO MAY NOT
  REPORT WEATHER SUCH AS PRECIPITATION OR FOG.

ILZ001-002-007-009-015-016-024-220800-
NORTHWEST ILLINOIS

CITY           SKY/WX    TMP DP  RH WIND       PRES   REMARKS
MOLINE         FAIR      27  18  69 NE10      30.55S WCI  17
STERLING*      FAIR      26  21  81 E9          N/A  WCI  17
SAVANNA*       MOCLDY    26  16  66 NE10      30.58F WCI  16
$$

ILZ003-004-008-010-011-017-018-220800-
NORTH CENTRAL ILLINOIS

CITY           SKY/WX    TMP DP  RH WIND       PRES   REMARKS
ROCKFORD       CLOUDY    25  16  68 NE9       30.60S WCI  15
FREEPORT*      FAIR      24  17  75 NE9       30.59F WCI  14
ROCHELLE*      FAIR      26  21  79 NE14      30.57F WCI  15
DE KALB*       FAIR      27  22  82 NE16      30.56S WCI  14
PERU*          FAIR      27  22  79 NE12      30.56R WCI  17
$$

ILZ005-006-012>014-019>023-220800-
NORTHEAST ILLINOIS

CITY           SKY/WX    TMP DP  RH WIND       PRES   REMARKS
CHICAGO-OHARE  CLOUDY    30  22  72 NE13      30.56F WCI  20
CHICAGO-MIDWAY CLOUDY    32  25  75 NE15      30.56F WCI  22
AURORA         FAIR      28  21  75 NE13      30.55F WCI  17
LANSING*       FAIR      31  28  89 NE12G18   30.55F WCI  22
JOLIET*        FAIR      31  25  78 NE10      30.55S WCI  22
WAUKEGAN       FAIR      29  22  75 NE9       30.59S WCI  20
DUPAGE AIRPORT FAIR      28  22  78 NE13      30.55F WCI  17
KANKAKEE*      CLOUDY    31  27  85 NE14      30.52F WCI  21
WHEELING       FAIR      30  23  75 NE12      30.60S WCI  20
MORRIS*        FAIR      30  24  80 NE7       30.54S WCI  23
ROMEOVILLE*    FAIR      30  25  81 NE16      30.54S WCI  18
NORTHERLY ISL    N/A     31  25  78 NE16        N/A  WCI  20
$$

LMZ740>746-220800-
SOUTHERN LAKE MICHIGAN

STATION/POSITION SKY/WX   TEMP    WIND        PRES    VSBY  WAVE
                          AIR SEA DIR/SP/G                  HT/PER
                          (F)     (DEG/KT/KT) (MB)    (MI)  (FT/S)
HARRISON CRIB              32      40/ 18/ 20   N/A
BURNHAM HARBOR             31      30/ 14/ 18   N/A
CALUMET HARBOR             31      30/ 15/ 19 1034.1F
BURNS HARBOR               31      50/ 20/ 23 1034.5F
MICHIGAN CITY              30      30/ 21/ 23   N/A
$$

ILZ025>027-034>036-040-047-049-050-058-095>099-220800-
WEST-CENTRAL ILLINOIS

CITY           SKY/WX    TMP DP  RH WIND       PRES   REMARKS
QUINCY         CLOUDY    28  25  88 NE12      30.46F WCI  18
GALESBURG*     FAIR      28  24  86 NE10      30.53S WCI  18
MACOMB*        FAIR      28  26  89 NE14      30.53F WCI  17
JACKSONVILLE*  CLOUDY    30  27  87 N9        30.48S WCI  22
PITTSFIELD*    CLOUDY    30  28  92 NE8       30.48S WCI  23
$$

ILZ028>032-037-038-041>044-048-051>054-059>061-220800-
CENTRAL ILLINOIS

CITY           SKY/WX    TMP DP  RH WIND       PRES   REMARKS
BLOOMINGTON    MOCLDY    29  27  92 NE21      30.47F WCI  16
DECATUR        MIX PCPN  32  30  92 NE18      30.43F WCI  20
PEORIA         CLOUDY    29  24  82 NE13      30.52R WCI  19
LACON*         MOCLDY    28  24  84 NE8       30.54R WCI  20
LINCOLN*       CLOUDY    32  31  95 NE10      30.48S WCI  24
SPRINGFIELD    CLOUDY    32  29  88 NE13      30.47R WCI  22
TAYLORVILLE    MIX PCPN  32  30  93 CALM      30.44F
$$

ILZ033-039-045-046-055>057-062-063-220800-
EAST-CENTRAL ILLINOIS

CITY           SKY/WX    TMP DP  RH WIND       PRES   REMARKS
CHAMPAIGN      CLOUDY    32  30  92 NE16      30.45R WCI  21
DANVILLE*      DRIZZLE   32  31  96 NE13      30.43F WCI  22
RANTOUL*       CLOUDY    33  32  95 NE15      30.46R WCI  23
MATTOON        LGT RAIN  35  33  92 E15       30.39F WCI  25
PARIS*         CLOUDY    35  34  95 NE16      30.42F WCI  25
$$

ILZ079-100>102-220800-
SOUTHWEST ILLINOIS

CITY           SKY/WX    TMP DP  RH WIND       PRES   REMARKS
ALTON          CLOUDY    32  32 100 NE5       30.39F WCI  27
CAHOKIA*       CLOUDY    34  32  92 N10         N/A  WCI  26
SPARTA*        LGT RAIN  35  35 100 E13       30.33F WCI  26
$$

ILZ064>066-069>071-074>076-080>082-084>086-088>090-092>094-220800-
SOUTH-CENTRAL ILLINOIS

CITY           SKY/WX    TMP DP  RH WIND       PRES   REMARKS
CARBONDALE     LGT RAIN  37  37 100 E8        30.35F WCI  31
CAIRO*         LGT RAIN  38  37  98 N12       30.31F WCI  30
EFFINGHAM*     RAIN      36  36 100 NE9       30.40F WCI  29
MARION         LGT RAIN  37  37  98 NE8       30.36F WCI  31
MT. VERNON     LGT RAIN  37  36  96 NE10      30.36F WCI  30
CENTRALIA*     LGT RAIN  37  37  99 E10       30.35F WCI  30
SALEM*         LGT RAIN  38  36  92 E10       30.37F WCI  30
METROPOLIS*    RAIN      39  38  96 NE6       30.33F
$$

ILZ067-068-072-073-078-083-087-091-220800-
SOUTHEAST ILLINOIS

CITY           SKY/WX    TMP DP  RH WIND       PRES   REMARKS
LAWRENCEVILLE  LGT RAIN  40  38  93 NE15      30.39F FOG
FLORA*         LGT RAIN  38  37  95 NE12      30.38F WCI  31
FAIRFIELD*     LGT RAIN  38  38 100 CALM      30.37F
HARRISBURG*    LGT RAIN  38  38  99 NE9G17    30.36F WCI  31
ROBINSON*      RAIN      38  37  98 NE13      30.42F WCI  30
CARMI*         LGT RAIN  38  38  97 NE12      30.36F WCI  31
$$

ABBREVIATIONS USED IN REMARKS
   TC - TEMPERATURE IN CELSIUS
  WCI - WIND CHILL INDEX
   HX - HEAT INDEX
  VSB - VISIBILITY
$$





USA.gov is the U.S. government's official web portal to all federal, state and local government web resources and services.